Tracking 30923 objects as of 1-Jul-2025
HD Live streaming from Space Station
objects crossing your sky now

METEOR 2-17 DEB

Track METEOR 2-17 DEB now!
10-day predictions


NORAD ID: 38281
Int'l Code: 1988-005AJ
Perigee: 877.2 km
Apogee: 898.6 km
Inclination: 82.5 °
Period: 102.6 minutes
Semi major axis: 7258 km
RCS: 0.0059 m2 (small)
Launch date: January 30, 1988
Source: Commonwealth of Independent States (former USSR) (CIS)
Launch site: PLESETSK MISSILE AND SPACE COMPLEX (PKMTR)

Note: This is SATELLITE DEBRIS
Your satellite tracking list
Your tracking list is empty




NASA's NSSDC Master Catalog

Two Line Element Set (TLE):
1 38281U 88005AJ  25179.33989127  .00001800  00000-0  11335-2 0  9993
2 38281  82.5325 192.2656 0014720 160.8318 199.3410 14.03770992541853
Source of the keplerian elements: AFSPC